| time (UTC) | temp C | wind direction | speed KPH | gust KPH | rain 1hr cm | rain 24hr cm | rain mn cm | humidity % | barometer mb |
| 20260831191510 | 20 | 28 | 8.0 | 16.1 | 0.00 | 0.00 | 0.00 | 62 | 1012.2 |
| 20260831191008 | 20 | 352 | 3.2 | 9.7 | 0.00 | 0.00 | 0.00 | 62 | 1012.3 |
| 20260831190509 | 20 | 49 | 6.4 | 12.9 | 0.00 | 0.00 | 0.00 | 60 | 1012.3 |
| 20260831190018 | 20 | 350 | 4.8 | 12.9 | 0.00 | 0.00 | 0.00 | 60 | 1012.4 |
| 20260831185514 | 20 | 25 | 1.6 | 14.5 | 0.00 | 0.00 | 0.00 | 62 | 1012.6 |
| 20260831185014 | 20 | 352 | 8.0 | 14.5 | 0.00 | 0.00 | 0.00 | 62 | 1012.6 |
| 20260831184531 | 19 | 319 | 4.8 | 14.5 | 0.00 | 0.00 | 0.00 | 66 | 1012.6 |
| 20260831184016 | 18 | 350 | 3.2 | 12.9 | 0.00 | 0.00 | 0.00 | 67 | 1012.6 |
| 20260831183517 | 18 | 308 | 6.4 | 12.9 | 0.00 | 0.00 | 0.00 | 67 | 1012.6 |
| 20260831183027 | 18 | 276 | 4.8 | 11.3 | 0.00 | 0.00 | 0.00 | 67 | 1012.7 |
| 20260831182517 | 18 | 322 | 4.8 | 12.9 | 0.00 | 0.00 | 0.00 | 67 | 1012.8 |
| 20260831182018 | 18 | 255 | 3.2 | 12.9 | 0.00 | 0.00 | 0.00 | 68 | 1012.8 |
| 20260831181512 | 18 | 320 | 4.8 | 12.9 | 0.00 | 0.00 | 0.00 | 68 | 1012.8 |
| 20260831181011 | 18 | 255 | 3.2 | 11.3 | 0.00 | 0.00 | 0.00 | 69 | 1012.9 |
| 20260831180510 | 18 | 313 | 4.8 | 12.9 | 0.00 | 0.00 | 0.00 | 69 | 1012.9 |
| 20260831180017 | 18 | 352 | 6.4 | 12.9 | 0.00 | 0.00 | 0.00 | 66 | 1013.0 |
| 20260831175511 | 18 | 352 | 3.2 | 12.9 | 0.00 | 0.00 | 0.00 | 64 | 1013.0 |
| 20260831175012 | 18 | 322 | 4.8 | 12.9 | 0.00 | 0.00 | 0.00 | 65 | 1013.0 |
| 20260831174522 | 18 | 20 | 3.2 | 8.0 | 0.00 | 0.00 | 0.00 | 66 | 1013.1 |
| 20260831174017 | 18 | 30 | 4.8 | 12.9 | 0.00 | 0.00 | 0.00 | 66 | 1013.1 |
| 20260831173515 | 18 | 50 | 3.2 | 12.9 | 0.00 | 0.00 | 0.00 | 67 | 1013.2 |
| 20260831173027 | 18 | 327 | 3.2 | 9.7 | 0.00 | 0.00 | 0.00 | 69 | 1013.3 |
| 20260831172516 | 18 | 24 | 4.8 | 9.7 | 0.00 | 0.00 | 0.00 | 69 | 1013.3 |
| 20260831172017 | 17 | 83 | 3.2 | 11.3 | 0.00 | 0.00 | 0.00 | 71 | 1013.3 |
| 20260831171533 | 17 | 32 | 3.2 | 11.3 | 0.00 | 0.00 | 0.00 | 71 | 1013.3 |
| 20260831171022 | 17 | 352 | 4.8 | 11.3 | 0.00 | 0.00 | 0.00 | 72 | 1013.4 |
| 20260831170519 | 17 | 38 | 4.8 | 11.3 | 0.00 | 0.00 | 0.00 | 72 | 1013.4 |
| 20260831170017 | 17 | 323 | 3.2 | 8.0 | 0.00 | 0.00 | 0.00 | 72 | 1013.4 |
| 20260831165511 | 16 | 28 | 3.2 | 9.7 | 0.00 | 0.00 | 0.00 | 73 | 1013.4 |
| 20260831165009 | 16 | 57 | 4.8 | 14.5 | 0.00 | 0.00 | 0.00 | 73 | 1013.5 |
| 20260831164518 | 16 | 103 | 3.2 | 14.5 | 0.00 | 0.00 | 0.00 | 73 | 1013.6 |
| 20260831164014 | 16 | 345 | 6.4 | 14.5 | 0.00 | 0.00 | 0.00 | 75 | 1013.6 |
| 20260831163514 | 16 | 13 | 6.4 | 14.5 | 0.00 | 0.00 | 0.00 | 75 | 1013.6 |
| 20260831163025 | 16 | 340 | 4.8 | 14.5 | 0.00 | 0.00 | 0.00 | 76 | 1013.6 |
| 20260831162512 | 16 | 71 | 4.8 | 9.7 | 0.00 | 0.00 | 0.00 | 77 | 1013.7 |
| 20260831162016 | 16 | 348 | 4.8 | 9.7 | 0.00 | 0.00 | 0.00 | 79 | 1013.8 |
| 20260831161531 | 16 | 9 | 4.8 | 8.0 | 0.00 | 0.00 | 0.00 | 79 | 1013.8 |
| 20260831161014 | 15 | 342 | 3.2 | 12.9 | 0.00 | 0.00 | 0.00 | 80 | 1013.9 |
| 20260831160518 | 15 | 348 | 8.0 | 12.9 | 0.00 | 0.00 | 0.00 | 80 | 1013.9 |
| 20260831160042 | 15 | 352 | 1.6 | 8.0 | 0.00 | 0.00 | 0.00 | 82 | 1013.9 |
| 20260831155519 | 15 | 19 | 3.2 | 12.9 | 0.00 | 0.00 | 0.00 | 82 | 1013.9 |
| 20260831155016 | 15 | 16 | 3.2 | 14.5 | 0.00 | 0.00 | 0.00 | 84 | 1014.0 |
| 20260831154541 | 15 | 338 | 8.0 | 14.5 | 0.00 | 0.00 | 0.00 | 84 | 1014.0 |
| 20260831154013 | 14 | 19 | 3.2 | 11.3 | 0.00 | 0.00 | 0.00 | 85 | 1014.1 |
| 20260831153516 | 14 | 352 | 3.2 | 12.9 | 0.00 | 0.00 | 0.00 | 86 | 1014.1 |
| 20260831153044 | 13 | 340 | 8.0 | 12.9 | 0.00 | 0.00 | 0.00 | 86 | 1014.1 |
| 20260831152506 | 13 | 65 | 3.2 | 11.3 | 0.00 | 0.00 | 0.00 | 86 | 1014.2 |
| 20260831152006 | 13 | 324 | 6.4 | 9.7 | 0.00 | 0.00 | 0.00 | 86 | 1014.2 |
| 20260831151506 | 13 | 33 | 3.2 | 8.0 | 0.00 | 0.00 | 0.00 | 86 | 1014.3 |
| 20260831151003 | 13 | 26 | 3.2 | 6.4 | 0.00 | 0.00 | 0.00 | 87 | 1014.4 |
| 20260831150505 | 13 | 360 | 0.0 | 4.8 | 0.00 | 0.00 | 0.00 | 87 | 1014.4 |
| 20260831150011 | 13 | 9 | 3.2 | 4.8 | 0.00 | 0.00 | 0.00 | 87 | 1014.3 |
| 20260831145507 | 13 | 9 | 1.6 | 4.8 | 0.00 | 0.00 | 0.00 | 88 | 1014.2 |
| 20260831145008 | 13 | 348 | 1.6 | 4.8 | 0.00 | 0.00 | 0.00 | 88 | 1014.2 |
| 20260831144513 | 13 | 13 | 0.0 | 3.2 | 0.00 | 0.00 | 0.00 | 88 | 1014.0 |
| 20260831144009 | 13 | 352 | 0.0 | 3.2 | 0.00 | 0.00 | 0.00 | 89 | 1014.0 |
| 20260831143512 | 13 | 9 | 0.0 | 3.2 | 0.00 | 0.00 | 0.00 | 89 | 1014.0 |
| 20260831143017 | 13 | 17 | 0.0 | 0.0 | 0.00 | 0.00 | 0.00 | 89 | 1014.1 |
| 20260831142511 | 13 | 28 | 0.0 | 6.4 | 0.00 | 0.00 | 0.00 | 90 | 1014.0 |
| 20260831142008 | 12 | 28 | 0.0 | 6.4 | 0.00 | 0.00 | 0.00 | 90 | 1014.1 |
| 20260831141511 | 12 | 9 | 0.0 | 6.4 | 0.00 | 0.00 | 0.00 | 91 | 1014.2 |
| 20260831141002 | 12 | 24 | 0.0 | 1.6 | 0.00 | 0.00 | 0.00 | 91 | 1014.1 |
| 20260831140504 | 11 | 26 | 0.0 | 0.0 | 0.00 | 0.00 | 0.00 | 91 | 1014.2 |
| 20260831140013 | 11 | 28 | 0.0 | 0.0 | 0.00 | 0.00 | 0.00 | 90 | 1014.2 |
| 20260831135506 | 11 | 28 | 0.0 | 0.0 | 0.00 | 0.00 | 0.00 | 91 | 1014.1 |
| 20260831135005 | 11 | 28 | 0.0 | 0.0 | 0.00 | 0.00 | 0.00 | 90 | 1014.1 |
| 20260831134514 | 12 | 28 | 0.0 | 0.0 | 0.00 | 0.00 | 0.00 | 90 | 1014.1 |
| 20260831134011 | 12 | 28 | 0.0 | 0.0 | 0.00 | 0.00 | 0.00 | 89 | 1014.0 |
| 20260831133508 | 12 | 28 | 0.0 | 0.0 | 0.00 | 0.00 | 0.00 | 90 | 1014.0 |
| 20260831133016 | 12 | 28 | 0.0 | 0.0 | 0.00 | 0.00 | 0.00 | 90 | 1013.9 |
| 20260831132514 | 12 | 28 | 0.0 | 0.0 | 0.00 | 0.00 | 0.00 | 89 | 1013.9 |
| 20260831132012 | 12 | 28 | 0.0 | 1.6 | 0.00 | 0.00 | 0.00 | 89 | 1014.0 |
| 20260831131527 | 12 | 28 | 0.0 | 1.6 | 0.00 | 0.00 | 0.00 | 89 | 1014.0 |
| 20260831131014 | 12 | 28 | 0.0 | 3.2 | 0.00 | 0.00 | 0.00 | 89 | 1014.1 |
| 20260831130511 | 12 | 28 | 0.0 | 3.2 | 0.00 | 0.00 | 0.00 | 89 | 1014.1 |
| 20260831130007 | 12 | 62 | 0.0 | 0.0 | 0.00 | 0.00 | 0.00 | 89 | 1014.1 |
| 20260831125504 | 12 | 61 | 0.0 | 1.6 | 0.00 | 0.00 | 0.00 | 89 | 1014.2 |
| 20260831125006 | 12 | 61 | 0.0 | 3.2 | 0.00 | 0.00 | 0.00 | 89 | 1014.2 |
| 20260831124508 | 12 | 75 | 0.0 | 3.2 | 0.00 | 0.00 | 0.00 | 89 | 1014.2 |
| 20260831124005 | 12 | 38 | 0.0 | 0.0 | 0.00 | 0.00 | 0.00 | 89 | 1014.1 |
| 20260831123515 | 12 | 43 | 0.0 | 0.0 | 0.00 | 0.00 | 0.00 | 89 | 1014.2 |
| 20260831123026 | 12 | 39 | 0.0 | 0.0 | 0.00 | 0.00 | 0.00 | 89 | 1014.2 |
| 20260831122514 | 12 | 39 | 0.0 | 0.0 | 0.00 | 0.00 | 0.00 | 88 | 1014.2 |
| 20260831122012 | 12 | 32 | 0.0 | 0.0 | 0.00 | 0.00 | 0.00 | 88 | 1014.3 |
| 20260831121529 | 12 | 38 | 0.0 | 0.0 | 0.00 | 0.00 | 0.00 | 88 | 1014.4 |
| 20260831121018 | 12 | 38 | 0.0 | 0.0 | 0.00 | 0.00 | 0.00 | 88 | 1014.3 |
| 20260831120516 | 12 | 352 | 0.0 | 3.2 | 0.00 | 0.00 | 0.00 | 88 | 1014.4 |
| 20260831120043 | 12 | 10 | 0.0 | 4.8 | 0.00 | 0.00 | 0.00 | 87 | 1014.5 |
| 20260831115518 | 13 | 10 | 0.0 | 4.8 | 0.00 | 0.00 | 0.00 | 87 | 1014.5 |
| 20260831115021 | 13 | 16 | 1.6 | 4.8 | 0.00 | 0.00 | 0.00 | 87 | 1014.5 |
| 20260831114531 | 13 | 352 | 0.0 | 4.8 | 0.00 | 0.00 | 0.00 | 87 | 1014.6 |
| 20260831114006 | 13 | 352 | 0.0 | 4.8 | 0.00 | 0.00 | 0.00 | 87 | 1014.6 |
| 20260831113509 | 13 | 9 | 0.0 | 3.2 | 0.00 | 0.00 | 0.00 | 86 | 1014.7 |
| 20260831113012 | 13 | 9 | 0.0 | 3.2 | 0.00 | 0.00 | 0.00 | 86 | 1014.7 |
| 20260831112509 | 13 | 5 | 1.6 | 3.2 | 0.00 | 0.00 | 0.00 | 86 | 1014.8 |
| 20260831112011 | 13 | 19 | 1.6 | 3.2 | 0.00 | 0.00 | 0.00 | 85 | 1014.9 |
| 20260831111518 | 13 | 352 | 0.0 | 6.4 | 0.00 | 0.00 | 0.00 | 85 | 1014.9 |
| 20260831111013 | 13 | 348 | 3.2 | 6.4 | 0.00 | 0.00 | 0.00 | 85 | 1014.9 |
| 20260831110512 | 13 | 35 | 1.6 | 6.4 | 0.00 | 0.00 | 0.00 | 85 | 1015.0 |
| 20260831110024 | 13 | 17 | 0.0 | 8.0 | 0.00 | 0.00 | 0.00 | 84 | 1015.0 |
| 20260831105513 | 13 | 31 | 0.0 | 8.0 | 0.00 | 0.00 | 0.00 | 84 | 1015.0 |
| 20260831105013 | 13 | 352 | 0.0 | 3.2 | 0.00 | 0.00 | 0.00 | 84 | 1015.1 |
| 20260831104537 | 13 | 345 | 0.0 | 4.8 | 0.00 | 0.00 | 0.00 | 83 | 1015.1 |
| 20260831104014 | 13 | 19 | 1.6 | 4.8 | 0.00 | 0.00 | 0.00 | 83 | 1015.1 |
| 20260831103513 | 13 | 15 | 0.0 | 3.2 | 0.00 | 0.00 | 0.00 | 83 | 1015.1 |
| 20260831103026 | 13 | 49 | 1.6 | 3.2 | 0.00 | 0.00 | 0.00 | 82 | 1015.1 |
| 20260831102506 | 13 | 54 | 1.6 | 3.2 | 0.00 | 0.00 | 0.00 | 82 | 1015.1 |
| 20260831102011 | 13 | 49 | 0.0 | 4.8 | 0.00 | 0.00 | 0.00 | 81 | 1015.2 |
| 20260831101522 | 13 | 57 | 1.6 | 4.8 | 0.00 | 0.00 | 0.00 | 81 | 1015.3 |
| 20260831101010 | 13 | 19 | 0.0 | 3.2 | 0.00 | 0.00 | 0.00 | 81 | 1015.3 |
| 20260831100513 | 13 | 18 | 1.6 | 3.2 | 0.00 | 0.00 | 0.00 | 80 | 1015.3 |
| 20260831100026 | 13 | 32 | 1.6 | 3.2 | 0.00 | 0.00 | 0.00 | 80 | 1015.4 |
| 20260831095514 | 13 | 44 | 0.0 | 6.4 | 0.00 | 0.00 | 0.00 | 79 | 1015.3 |
| 20260831095014 | 14 | 30 | 1.6 | 6.4 | 0.00 | 0.00 | 0.00 | 79 | 1015.4 |
| 20260831094530 | 14 | 11 | 0.0 | 12.9 | 0.00 | 0.00 | 0.00 | 79 | 1015.4 |
| 20260831094017 | 14 | 22 | 4.8 | 12.9 | 0.00 | 0.00 | 0.00 | 78 | 1015.5 |
| 20260831093516 | 14 | 5 | 1.6 | 9.7 | 0.00 | 0.00 | 0.00 | 78 | 1015.7 |
| 20260831093030 | 14 | 16 | 1.6 | 6.4 | 0.00 | 0.00 | 0.00 | 78 | 1015.8 |
| 20260831092514 | 14 | 21 | 1.6 | 6.4 | 0.00 | 0.00 | 0.00 | 78 | 1015.8 |
| 20260831092015 | 14 | 48 | 1.6 | 4.8 | 0.00 | 0.00 | 0.00 | 78 | 1015.9 |
| 20260831091529 | 14 | 36 | 0.0 | 3.2 | 0.00 | 0.00 | 0.00 | 78 | 1015.9 |
| 20260831091009 | 14 | 5 | 0.0 | 3.2 | 0.00 | 0.00 | 0.00 | 78 | 1016.0 |
| 20260831090510 | 14 | 5 | 0.0 | 3.2 | 0.00 | 0.00 | 0.00 | 78 | 1015.9 |
| 20260831090021 | 14 | 352 | 1.6 | 6.4 | 0.00 | 0.00 | 0.00 | 77 | 1015.9 |
| 20260831085514 | 14 | 67 | 1.6 | 6.4 | 0.00 | 0.00 | 0.00 | 78 | 1015.9 |
| 20260831085016 | 14 | 44 | 1.6 | 4.8 | 0.00 | 0.00 | 0.00 | 77 | 1016.0 |
| 20260831084523 | 14 | 65 | 1.6 | 6.4 | 0.00 | 0.00 | 0.00 | 78 | 1016.0 |
| 20260831084015 | 14 | 11 | 3.2 | 6.4 | 0.00 | 0.00 | 0.00 | 78 | 1016.0 |
| 20260831083514 | 14 | 350 | 3.2 | 6.4 | 0.00 | 0.00 | 0.00 | 78 | 1016.0 |
| 20260831083030 | 14 | 5 | 0.0 | 4.8 | 0.00 | 0.00 | 0.00 | 78 | 1016.0 |
| 20260831082504 | 14 | 29 | 1.6 | 4.8 | 0.00 | 0.00 | 0.00 | 78 | 1016.1 |
| 20260831082006 | 14 | 56 | 0.0 | 4.8 | 0.00 | 0.00 | 0.00 | 77 | 1016.2 |
| 20260831081515 | 14 | 17 | 0.0 | 4.8 | 0.00 | 0.00 | 0.00 | 78 | 1016.2 |
| 20260831081006 | 14 | 32 | 0.0 | 4.8 | 0.00 | 0.00 | 0.00 | 77 | 1016.1 |
| 20260831080509 | 14 | 360 | 0.0 | 3.2 | 0.00 | 0.00 | 0.00 | 77 | 1016.2 |
| 20260831080015 | 14 | 360 | 0.0 | 3.2 | 0.00 | 0.00 | 0.00 | 77 | 1016.3 |
| 20260831075510 | 14 | 9 | 0.0 | 0.0 | 0.00 | 0.00 | 0.00 | 77 | 1016.3 |
| 20260831075010 | 14 | 348 | 0.0 | 3.2 | 0.00 | 0.00 | 0.00 | 77 | 1016.4 |
| 20260831074521 | 14 | 348 | 0.0 | 3.2 | 0.00 | 0.00 | 0.00 | 77 | 1016.4 |
| 20260831074005 | 14 | 346 | 1.6 | 3.2 | 0.00 | 0.00 | 0.00 | 76 | 1016.4 |
| 20260831073504 | 15 | 346 | 0.0 | 3.2 | 0.00 | 0.00 | 0.00 | 76 | 1016.5 |
| 20260831073005 | 15 | 336 | 0.0 | 3.2 | 0.00 | 0.00 | 0.00 | 76 | 1016.5 |
| 20260831072503 | 15 | 9 | 0.0 | 0.0 | 0.00 | 0.00 | 0.00 | 76 | 1016.6 |
| 20260831072004 | 15 | 20 | 0.0 | 0.0 | 0.00 | 0.00 | 0.00 | 76 | 1016.6 |
| 20260831071507 | 15 | 20 | 0.0 | 0.0 | 0.00 | 0.00 | 0.00 | 76 | 1016.5 |
| 20260831071006 | 15 | 20 | 0.0 | 3.2 | 0.00 | 0.00 | 0.00 | 75 | 1016.6 |
| 20260831070506 | 15 | 352 | 0.0 | 3.2 | 0.00 | 0.00 | 0.00 | 75 | 1016.6 |
| 20260831070022 | 15 | 5 | 0.0 | 1.6 | 0.00 | 0.00 | 0.00 | 75 | 1016.7 |
| 20260831065511 | 15 | 5 | 0.0 | 3.2 | 0.00 | 0.00 | 0.00 | 75 | 1016.8 |
| 20260831065010 | 15 | 9 | 0.0 | 3.2 | 0.00 | 0.00 | 0.00 | 75 | 1016.8 |
| 20260831064518 | 15 | 5 | 0.0 | 3.2 | 0.00 | 0.00 | 0.00 | 75 | 1016.8 |
| 20260831064017 | 15 | 352 | 0.0 | 3.2 | 0.00 | 0.00 | 0.00 | 74 | 1016.8 |
| 20260831063516 | 15 | 352 | 0.0 | 3.2 | 0.00 | 0.00 | 0.00 | 74 | 1016.9 |
| 20260831063027 | 15 | 352 | 0.0 | 3.2 | 0.00 | 0.00 | 0.00 | 73 | 1017.0 |
| 20260831062517 | 15 | 352 | 0.0 | 3.2 | 0.00 | 0.00 | 0.00 | 73 | 1017.1 |
| 20260831062004 | 15 | 352 | 0.0 | 3.2 | 0.00 | 0.00 | 0.00 | 72 | 1017.1 |
| 20260831061508 | 15 | 36 | 0.0 | 3.2 | 0.00 | 0.00 | 0.00 | 72 | 1017.2 |
| 20260831061007 | 15 | 17 | 0.0 | 3.2 | 0.00 | 0.00 | 0.00 | 71 | 1017.2 |
| 20260831060510 | 16 | 42 | 0.0 | 3.2 | 0.00 | 0.00 | 0.00 | 71 | 1017.1 |
| 20260831060015 | 16 | 42 | 0.0 | 3.2 | 0.00 | 0.00 | 0.00 | 70 | 1017.1 |
| 20260831055506 | 16 | 59 | 0.0 | 3.2 | 0.00 | 0.00 | 0.00 | 70 | 1017.1 |
| 20260831055013 | 16 | 51 | 0.0 | 3.2 | 0.00 | 0.00 | 0.00 | 70 | 1017.2 |
| 20260831054517 | 16 | 42 | 0.0 | 3.2 | 0.00 | 0.00 | 0.00 | 70 | 1017.2 |
| 20260831054010 | 16 | 42 | 0.0 | 3.2 | 0.00 | 0.00 | 0.00 | 69 | 1017.3 |
| 20260831053515 | 16 | 22 | 1.6 | 3.2 | 0.00 | 0.00 | 0.00 | 69 | 1017.5 |
| 20260831053027 | 16 | 79 | 0.0 | 4.8 | 0.00 | 0.00 | 0.00 | 68 | 1017.5 |
| 20260831052515 | 16 | 61 | 1.6 | 4.8 | 0.00 | 0.00 | 0.00 | 68 | 1017.6 |
| 20260831052016 | 16 | 348 | 1.6 | 4.8 | 0.00 | 0.00 | 0.00 | 67 | 1017.6 |
| 20260831051545 | 16 | 15 | 0.0 | 8.0 | 0.00 | 0.00 | 0.00 | 67 | 1017.6 |
| 20260831051014 | 16 | 40 | 1.6 | 8.0 | 0.00 | 0.00 | 0.00 | 67 | 1017.6 |
| 20260831050503 | 16 | 53 | 3.2 | 6.4 | 0.00 | 0.00 | 0.00 | 66 | 1017.7 |
| 20260831050008 | 16 | 11 | 0.0 | 8.0 | 0.00 | 0.00 | 0.00 | 66 | 1017.7 |
| 20260831045507 | 16 | 352 | 3.2 | 8.0 | 0.00 | 0.00 | 0.00 | 66 | 1017.7 |
| 20260831045006 | 16 | 360 | 3.2 | 4.8 | 0.00 | 0.00 | 0.00 | 66 | 1017.8 |
| 20260831044515 | 16 | 16 | 0.0 | 3.2 | 0.00 | 0.00 | 0.00 | 66 | 1017.8 |
| 20260831044009 | 16 | 42 | 0.0 | 4.8 | 0.00 | 0.00 | 0.00 | 66 | 1017.8 |
| 20260831043510 | 16 | 42 | 0.0 | 4.8 | 0.00 | 0.00 | 0.00 | 66 | 1017.9 |
| 20260831043024 | 16 | 49 | 0.0 | 0.0 | 0.00 | 0.00 | 0.00 | 65 | 1017.8 |
| 20260831042512 | 16 | 49 | 0.0 | 3.2 | 0.00 | 0.00 | 0.00 | 65 | 1017.9 |
| 20260831042012 | 16 | 49 | 0.0 | 3.2 | 0.00 | 0.00 | 0.00 | 64 | 1017.9 |
| 20260831041533 | 16 | 33 | 0.0 | 3.2 | 0.00 | 0.00 | 0.00 | 64 | 1017.9 |
| 20260831041014 | 17 | 352 | 1.6 | 3.2 | 0.00 | 0.00 | 0.00 | 63 | 1017.8 |
| 20260831040516 | 17 | 342 | 1.6 | 3.2 | 0.00 | 0.00 | 0.00 | 62 | 1017.8 |
| 20260831040042 | 17 | 5 | 1.6 | 3.2 | 0.00 | 0.00 | 0.00 | 62 | 1017.8 |
| 20260831035514 | 17 | 5 | 0.0 | 3.2 | 0.00 | 0.00 | 0.00 | 62 | 1017.8 |
| 20260831035008 | 17 | 5 | 1.6 | 4.8 | 0.00 | 0.00 | 0.00 | 61 | 1017.8 |
| 20260831034513 | 17 | 350 | 1.6 | 4.8 | 0.00 | 0.00 | 0.00 | 61 | 1017.8 |
| 20260831034008 | 17 | 24 | 0.0 | 4.8 | 0.00 | 0.00 | 0.00 | 60 | 1017.8 |
| 20260831033509 | 17 | 352 | 1.6 | 4.8 | 0.00 | 0.00 | 0.00 | 60 | 1017.8 |
| 20260831033016 | 17 | 23 | 1.6 | 4.8 | 0.00 | 0.00 | 0.00 | 61 | 1017.8 |
| 20260831032513 | 17 | 333 | 0.0 | 0.0 | 0.00 | 0.00 | 0.00 | 61 | 1017.7 |
| 20260831032012 | 17 | 320 | 0.0 | 3.2 | 0.00 | 0.00 | 0.00 | 60 | 1017.7 |
| 20260831031525 | 17 | 9 | 0.0 | 3.2 | 0.00 | 0.00 | 0.00 | 60 | 1017.8 |
| 20260831031017 | 17 | 9 | 0.0 | 1.6 | 0.00 | 0.00 | 0.00 | 59 | 1017.7 |
| 20260831030516 | 17 | 9 | 0.0 | 3.2 | 0.00 | 0.00 | 0.00 | 59 | 1017.8 |
| 20260831030030 | 18 | 9 | 0.0 | 3.2 | 0.00 | 0.00 | 0.00 | 59 | 1017.7 |
| 20260831025515 | 18 | 352 | 0.0 | 3.2 | 0.00 | 0.00 | 0.00 | 59 | 1017.8 |
| 20260831025015 | 18 | 352 | 0.0 | 3.2 | 0.00 | 0.00 | 0.00 | 59 | 1017.8 |
| 20260831024530 | 18 | 321 | 0.0 | 0.0 | 0.00 | 0.00 | 0.00 | 58 | 1017.8 |
| 20260831024022 | 18 | 336 | 0.0 | 1.6 | 0.00 | 0.00 | 0.00 | 58 | 1017.8 |
| 20260831023508 | 18 | 300 | 0.0 | 1.6 | 0.00 | 0.00 | 0.00 | 58 | 1017.9 |
| 20260831023023 | 18 | 9 | 0.0 | 3.2 | 0.00 | 0.00 | 0.00 | 58 | 1017.9 |
| 20260831022515 | 18 | 9 | 0.0 | 3.2 | 0.00 | 0.00 | 0.00 | 57 | 1017.8 |
| 20260831022011 | 18 | 22 | 0.0 | 3.2 | 0.00 | 0.00 | 0.00 | 56 | 1017.8 |
| 20260831021544 | 18 | 352 | 0.0 | 3.2 | 0.00 | 0.00 | 0.00 | 56 | 1018.0 |
| 20260831021013 | 18 | 301 | 0.0 | 4.8 | 0.00 | 0.00 | 0.00 | 56 | 1018.0 |
| 20260831020513 | 18 | 270 | 1.6 | 4.8 | 0.00 | 0.00 | 0.00 | 55 | 1018.0 |
| 20260831020025 | 19 | 335 | 1.6 | 6.4 | 0.00 | 0.00 | 0.00 | 54 | 1018.0 |
| 20260831015519 | 19 | 5 | 1.6 | 6.4 | 0.00 | 0.00 | 0.00 | 54 | 1018.0 |
| 20260831015017 | 19 | 311 | 3.2 | 8.0 | 0.00 | 0.00 | 0.00 | 53 | 1018.0 |
| 20260831014530 | 19 | 9 | 3.2 | 8.0 | 0.00 | 0.00 | 0.00 | 53 | 1018.1 |
| 20260831014016 | 19 | 5 | 1.6 | 4.8 | 0.00 | 0.00 | 0.00 | 51 | 1018.1 |
| 20260831013516 | 19 | 344 | 1.6 | 4.8 | 0.00 | 0.00 | 0.00 | 51 | 1018.2 |
| 20260831013030 | 20 | 319 | 1.6 | 4.8 | 0.00 | 0.00 | 0.00 | 51 | 1018.2 |
| 20260831012518 | 20 | 279 | 0.0 | 4.8 | 0.00 | 0.00 | 0.00 | 53 | 1018.2 |
| 20260831012009 | 20 | 281 | 1.6 | 4.8 | 0.00 | 0.00 | 0.00 | 52 | 1018.3 |
| 20260831011517 | 20 | 265 | 0.0 | 3.2 | 0.00 | 0.00 | 0.00 | 51 | 1018.3 |
| 20260831011012 | 20 | 259 | 0.0 | 4.8 | 0.00 | 0.00 | 0.00 | 51 | 1018.3 |
| 20260831010512 | 20 | 338 | 1.6 | 4.8 | 0.00 | 0.00 | 0.00 | 51 | 1018.3 |
| 20260831010041 | 20 | 290 | 0.0 | 4.8 | 0.00 | 0.00 | 0.00 | 50 | 1018.4 |
| 20260831005504 | 20 | 275 | 1.6 | 4.8 | 0.00 | 0.00 | 0.00 | 50 | 1018.4 |
| 20260831005004 | 20 | 306 | 1.6 | 6.4 | 0.00 | 0.00 | 0.00 | 51 | 1018.4 |
| 20260831004506 | 20 | 5 | 1.6 | 6.4 | 0.00 | 0.00 | 0.00 | 50 | 1018.4 |
| 20260831004009 | 20 | 268 | 1.6 | 9.7 | 0.00 | 0.00 | 0.00 | 49 | 1018.5 |
| 20260831003504 | 20 | 265 | 4.8 | 9.7 | 0.00 | 0.00 | 0.00 | 49 | 1018.6 |
| 20260831003009 | 20 | 310 | 3.2 | 9.7 | 0.00 | 0.00 | 0.00 | 49 | 1018.6 |
| 20260831002507 | 20 | 302 | 3.2 | 12.9 | 0.00 | 0.00 | 0.00 | 48 | 1018.6 |
| 20260831002012 | 20 | 247 | 4.8 | 12.9 | 0.00 | 0.00 | 0.00 | 49 | 1018.6 |
| 20260831001529 | 20 | 336 | 1.6 | 12.9 | 0.00 | 0.00 | 0.00 | 51 | 1018.6 |
| 20260831001009 | 20 | 317 | 3.2 | 12.9 | 0.00 | 0.00 | 0.00 | 51 | 1018.7 |
| 20260831000511 | 20 | 343 | 3.2 | 12.9 | 0.00 | 0.00 | 0.00 | 51 | 1018.7 |
| 20260831000021 | 20 | 321 | 3.2 | 12.9 | 0.00 | 0.00 | 0.00 | 51 | 1018.8 |
| 20260830235512 | 20 | 312 | 6.4 | 12.9 | 0.00 | 0.00 | 0.00 | 49 | 1018.8 |
| 20260830235003 | 20 | 292 | 3.2 | 11.3 | 0.00 | 0.00 | 0.00 | 48 | 1018.9 |
| 20260830234504 | 21 | 306 | 1.6 | 12.9 | 0.00 | 0.00 | 0.00 | 48 | 1018.9 |
| 20260830234007 | 21 | 286 | 3.2 | 12.9 | 0.00 | 0.00 | 0.00 | 48 | 1019.1 |
| 20260830233505 | 21 | 176 | 3.2 | 6.4 | 0.00 | 0.00 | 0.00 | 46 | 1019.1 |
| 20260830233007 | 21 | 328 | 0.0 | 6.4 | 0.00 | 0.00 | 0.00 | 47 | 1019.1 |
| 20260830232505 | 20 | 292 | 1.6 | 9.7 | 0.00 | 0.00 | 0.00 | 50 | 1019.1 |
| 20260830232009 | 20 | 290 | 4.8 | 9.7 | 0.00 | 0.00 | 0.00 | 49 | 1019.1 |
| 20260830231526 | 20 | 331 | 4.8 | 9.7 | 0.00 | 0.00 | 0.00 | 51 | 1019.2 |
| 20260830231008 | 20 | 290 | 3.2 | 9.7 | 0.00 | 0.00 | 0.00 | 51 | 1019.2 |
| 20260830230512 | 20 | 250 | 3.2 | 9.7 | 0.00 | 0.00 | 0.00 | 51 | 1019.2 |
| 20260830230018 | 21 | 184 | 1.6 | 11.3 | 0.00 | 0.00 | 0.00 | 53 | 1019.1 |
| 20260830225511 | 20 | 127 | 1.6 | 11.3 | 0.00 | 0.00 | 0.00 | 53 | 1019.2 |
| 20260830225013 | 20 | 294 | 3.2 | 9.7 | 0.00 | 0.00 | 0.00 | 53 | 1019.2 |
| 20260830224524 | 20 | 273 | 3.2 | 9.7 | 0.00 | 0.00 | 0.00 | 54 | 1019.3 |
| 20260830224012 | 20 | 286 | 1.6 | 9.7 | 0.00 | 0.00 | 0.00 | 55 | 1019.3 |
| 20260830223504 | 20 | 289 | 4.8 | 9.7 | 0.00 | 0.00 | 0.00 | 54 | 1019.4 |
| 20260830223012 | 21 | 284 | 3.2 | 9.7 | 0.00 | 0.00 | 0.00 | 53 | 1019.5 |
| 20260830222504 | 20 | 302 | 3.2 | 9.7 | 0.00 | 0.00 | 0.00 | 53 | 1019.5 |
| 20260830222008 | 20 | 176 | 1.6 | 6.4 | 0.00 | 0.00 | 0.00 | 55 | 1019.6 |
| 20260830221512 | 20 | 281 | 4.8 | 9.7 | 0.00 | 0.00 | 0.00 | 52 | 1019.7 |
| 20260830221010 | 20 | 208 | 3.2 | 11.3 | 0.00 | 0.00 | 0.00 | 54 | 1019.6 |
| 20260830220508 | 20 | 242 | 1.6 | 11.3 | 0.00 | 0.00 | 0.00 | 55 | 1019.6 |
| 20260830220022 | 20 | 182 | 4.8 | 11.3 | 0.00 | 0.00 | 0.00 | 53 | 1019.6 |
| 20260830215510 | 20 | 215 | 3.2 | 11.3 | 0.00 | 0.00 | 0.00 | 55 | 1019.6 |
| 20260830215013 | 20 | 134 | 4.8 | 11.3 | 0.00 | 0.00 | 0.00 | 53 | 1019.6 |
| 20260830214528 | 20 | 158 | 6.4 | 11.3 | 0.00 | 0.00 | 0.00 | 54 | 1019.6 |
| 20260830214012 | 20 | 311 | 1.6 | 9.7 | 0.00 | 0.00 | 0.00 | 53 | 1019.8 |
| 20260830213517 | 20 | 213 | 3.2 | 12.9 | 0.00 | 0.00 | 0.00 | 56 | 1019.8 |
| 20260830213028 | 19 | 151 | 4.8 | 12.9 | 0.00 | 0.00 | 0.00 | 56 | 1019.9 |
| 20260830212516 | 19 | 92 | 4.8 | 9.7 | 0.00 | 0.00 | 0.00 | 55 | 1019.9 |
| 20260830212004 | 19 | 205 | 3.2 | 9.7 | 0.00 | 0.00 | 0.00 | 57 | 1020.0 |
| 20260830211517 | 19 | 126 | 3.2 | 9.7 | 0.00 | 0.00 | 0.00 | 57 | 1020.0 |
| 20260830211008 | 20 | 184 | 3.2 | 8.0 | 0.00 | 0.00 | 0.00 | 56 | 1020.1 |
| 20260830210508 | 20 | 193 | 1.6 | 11.3 | 0.00 | 0.00 | 0.00 | 57 | 1020.1 |
| 20260830210014 | 19 | 140 | 4.8 | 11.3 | 0.00 | 0.00 | 0.00 | 60 | 1020.1 |
| 20260830205513 | 19 | 59 | 1.6 | 11.3 | 0.00 | 0.00 | 0.00 | 60 | 1020.2 |
| 20260830205008 | 18 | 155 | 4.8 | 12.9 | 0.00 | 0.00 | 0.00 | 60 | 1020.2 |
| 20260830204519 | 19 | 207 | 3.2 | 12.9 | 0.00 | 0.00 | 0.00 | 61 | 1020.2 |
| 20260830204012 | 20 | 134 | 3.2 | 8.0 | 0.00 | 0.00 | 0.00 | 60 | 1020.3 |
| 20260830203512 | 20 | 258 | 0.0 | 6.4 | 0.00 | 0.00 | 0.00 | 58 | 1020.3 |
| 20260830203024 | 19 | 198 | 3.2 | 9.7 | 0.00 | 0.00 | 0.00 | 62 | 1020.3 |
| 20260830202517 | 18 | 132 | 4.8 | 9.7 | 0.00 | 0.00 | 0.00 | 62 | 1020.3 |
| 20260830202016 | 18 | 204 | 4.8 | 9.7 | 0.00 | 0.00 | 0.00 | 61 | 1020.4 |
| 20260830201529 | 18 | 308 | 3.2 | 9.7 | 0.00 | 0.00 | 0.00 | 63 | 1020.5 |
| 20260830201018 | 18 | 159 | 1.6 | 8.0 | 0.00 | 0.00 | 0.00 | 64 | 1020.5 |
| 20260830200507 | 18 | 184 | 3.2 | 8.0 | 0.00 | 0.00 | 0.00 | 63 | 1020.5 |
| 20260830200010 | 18 | 213 | 1.6 | 11.3 | 0.00 | 0.00 | 0.00 | 65 | 1020.4 |
| 20260830195508 | 17 | 141 | 6.4 | 12.9 | 0.00 | 0.00 | 0.00 | 65 | 1020.5 |
| 20260830195012 | 18 | 205 | 6.4 | 12.9 | 0.00 | 0.00 | 0.00 | 63 | 1020.6 |
| 20260830194518 | 18 | 263 | 1.6 | 8.0 | 0.00 | 0.00 | 0.00 | 64 | 1020.6 |
| 20260830194011 | 18 | 147 | 4.8 | 8.0 | 0.00 | 0.00 | 0.00 | 64 | 1020.6 |
| 20260830193513 | 18 | 167 | 3.2 | 9.7 | 0.00 | 0.00 | 0.00 | 63 | 1020.7 |
| 20260830193024 | 18 | 254 | 4.8 | 9.7 | 0.00 | 0.00 | 0.00 | 65 | 1020.7 |
| 20260830192512 | 19 | 201 | 1.6 | 6.4 | 0.00 | 0.00 | 0.00 | 63 | 1020.7 |
| 20260830192016 | 18 | 261 | 1.6 | 6.4 | 0.00 | 0.00 | 0.00 | 62 | 1020.7 |